This is the latest recevied weather packets stored in our database for station/object KC9VAF. If no packets are shown the sender has not sent any weather packets the latest 10 day(s).
| Time | Temp. | Humidity | Pressure | Rain* | Wind** | Luminosity | Snow |
|---|---|---|---|---|---|---|---|
| 1778279116 | 16.67° C | 38% | 1007 hPa | 0 mm | - | 72 W/m² | - |
| 1778278812 | 17.22° C | 37% | 1006.8 hPa | 0 mm | - | 260 W/m² | - |
| 1778278508 | 17.22° C | 37% | 1007 hPa | 0 mm | - | 311 W/m² | - |
| 1778278204 | 16.67° C | 37% | 1007 hPa | 0 mm | - | 162 W/m² | - |
| 1778277901 | 18.33° C | 35% | 1006.8 hPa | 0 mm | - | 88 W/m² | - |
| 1778277596 | 18.89° C | 34% | 1006.6 hPa | 0 mm | - | 394 W/m² | - |
| 1778277294 | 18.33° C | 35% | 1006.6 hPa | 0 mm | - | 407 W/m² | - |
| 1778276990 | 18.33° C | 34% | 1006.4 hPa | 0 mm | - | 417 W/m² | - |
| 1778276688 | 17.78° C | 34% | 1006.6 hPa | 0 mm | - | 424 W/m² | - |
| 1778276384 | 17.78° C | 32% | 1006.6 hPa | 0 mm | - | 442 W/m² | - |
| 1778276082 | 18.33° C | 33% | 1006.4 hPa | 0 mm | - | 448 W/m² | - |
| 1778275777 | 18.89° C | 33% | 1006.5 hPa | 0 mm | - | 462 W/m² | - |
| 1778275474 | 18.89° C | 31% | 1006.8 hPa | 0 mm | - | 468 W/m² | - |
| 1778275170 | 18.89° C | 36% | 1006.6 hPa | 0 mm | - | 479 W/m² | - |
| 1778274866 | 18.89° C | 33% | 1007 hPa | 0 mm | - | 502 W/m² | - |
| 1778274563 | 18.89° C | 33% | 1006.7 hPa | 0 mm | - | 482 W/m² | - |
| 1778274260 | 18.89° C | 32% | 1006.8 hPa | 0 mm | - | 539 W/m² | - |
| 1778273956 | 20° C | 33% | 1007.2 hPa | 0 mm | - | 564 W/m² | - |
| 1778273653 | 18.89° C | 32% | 1007.2 hPa | 0 mm | - | 556 W/m² | - |
| 1778273349 | 18.89° C | 34% | 1007.3 hPa | 0 mm | - | 566 W/m² | - |
| 1778273047 | 19.44° C | 35% | 1007.3 hPa | 0 mm | - | 571 W/m² | - |
| 1778272742 | 19.44° C | 33% | 1007.3 hPa | 0 mm | - | 563 W/m² | - |
| 1778272438 | 19.44° C | 32% | 1007.6 hPa | 0 mm | - | 572 W/m² | - |
| 1778272134 | 19.44° C | 26% | 1007.6 hPa | 0 mm | - | 596 W/m² | - |
| 1778271832 | 18.89° C | 32% | 1007.3 hPa | 0 mm | - | 564 W/m² | - |
* Rain latest hour (hover to see other rain measurements)
** Current wind speed in m/s (hover to see current wind gust speed)